THORAD AGENA D DEB, 4687

Orbit data source: Space-Track

THORAD AGENA D DEB, 4687 is space debris in SSO originally from a launch on Wed, 08 Apr 1970 UTC launched from the Air Force Western Test Range (AFWTR). Debris objects in space refer to the collection of defunct objects orbiting the Earth. Examples of debris include non-operational satellites, rocket bodies, and fragments generated from explosions, collisions, or faulty payload assembly.

Loading next visibility...
Identifier
4687, 1970-025BL
Orbit
SSO
Country
Flag of USUS
Related business
Manufacturer
Unknown
Mission
Spacecraft
Bus & Motor
Unknown
Mass
Unknown
Launch date (UTC)
1970-04-08 (56 years ago)
Launch vehicle
Unknown
Launch site
Air Force Western Test Range (AFWTR)
Object type
Payload
Rocket body
Debris
Shape & HBR
Unknown shape, 0.3 m
Radar Cross Section
Medium (>0.1 m² and <1 m²)

Expand to show TLE details & history
Last TLE update: 6 hours ago

TLE from 6 hours ago
0 THORAD AGENA D DEB
1 04687U 70025BL  25299.91746932  .00000234  00000-0  42591-3 0  9990
2 04687  99.5378  88.8971 0028223 149.1643 334.0534 13.51146525732775
Epoch: 2025-10-26T22:01Z
TLE epoch observation values (Epoch: 2025-10-26T22:01:09.349Z)
Latitude
55.8249°
Longitude
-82.66636°
Altitude
1,058.358 km
Speed
7.337 km/s
True Right ascension
18h 52m 35s
True Declination
55° 40' 17"
Sunlit
Object was in daylight at epoch
Visualization orbit readout
Latitude
Unknown
Longitude
Unknown
Altitude
Unknown
Speed
Unknown
Apparent Right ascension
Unknown
Apparent Declination
Unknown
Sunlit
N/A
Visualization observer readout
Local Sidereal Time
23:36:36
Azimuth
Unknown
Elevation
Unknown
Doppler factor
Unknown
Orbital elements
Apogee altitude
1,086.342 km
Perigee altitude
1,044.327 km
Semi-major axis
7,443.472 km
Eccentricity
0.00282
Inclination
99.5378°
RAAN
88.8971°
Arg. of periapsis
149.1643°
True anomaly
333.91145°
Mean anomaly
334.0534°
Eccentric anomaly
333.98247°
Mean motion
3.37971 °/min
Orbital period
106.52 mins
BSTAR
0.00042591

Documentation

Showing up to 5 results
|